Location: Hysolar-Haus
(48.7436°N, 9.0965°E)
Time: 09:20:42
(UTC+00:00)

SR - All Passes

Search period start: 12 November 2019 00:00
Search period end: 22 November 2019 00:00
Orbit: 574 x 882 km, 66.7° (Epoch: 11 November)

Date Brightness Start Highest point End Pass type
(mag) Time Alt. Az. Time Alt. Az. Time Alt. Az.
12 Nov - 01:40:53 10° NW 01:45:51 28° WSW 01:50:43 10° SSW night (unlit)
12 Nov - 14:33:46 10° SE 14:37:15 18° ESE 14:40:53 10° ENE daylight
12 Nov - 16:13:14 10° SW 16:18:33 85° WNW 16:24:20 10° NE visible
12 Nov - 17:57:04 10° W 18:01:33 25° NNW 18:06:16 10° NNE visible
12 Nov - 19:43:03 10° NW 19:45:49 13° N 19:48:39 10° NNE visible
12 Nov - 21:26:43 10° NNW 21:30:26 17° NNE 21:34:10 10° ENE visible
12 Nov - 23:08:33 10° NNW 23:14:10 41° NE 23:19:43 10° ESE night (unlit)
13 Nov - 00:50:46 10° NW 00:56:29 49° WSW 01:02:02 10° S night (unlit)
13 Nov - 15:23:49 10° SSW 15:28:57 56° ESE 15:34:32 10° NE daylight
13 Nov - 17:06:25 10° WSW 17:11:23 35° NW 17:16:42 10° NNE visible
13 Nov - 18:52:01 10° NW 18:55:18 15° NNW 18:58:40 10° NNE visible
13 Nov - 20:36:54 10° NNW 20:39:56 14° N 20:43:01 10° NE visible
13 Nov - 22:19:00 10° NNW 22:24:05 28° NE 22:29:08 10° E night (unlit)
14 Nov - 00:00:55 10° NW 00:06:55 83° WSW 00:12:44 10° SSE night (unlit)
14 Nov - 01:44:35 10° WNW 01:48:11 17° WSW 01:51:44 10° SW night (unlit)
14 Nov - 14:34:58 10° S 14:39:34 31° ESE 14:44:29 10° NE daylight
14 Nov - 16:16:08 10° SW 16:21:24 54° NW 16:27:07 10° NNE visible
14 Nov - 18:00:55 10° WNW 18:04:53 19° NNW 18:08:58 10° NNE visible
14 Nov - 19:46:42 10° NNW 19:49:23 13° N 19:52:06 10° NNE visible
14 Nov - 21:29:26 10° NNW 21:33:50 21° NNE 21:38:14 10° ENE visible
14 Nov - 23:11:14 10° NNW 23:17:10 61° NE 23:22:57 10° SE night (unlit)
15 Nov - 00:53:54 10° NW 00:58:58 30° WSW 01:03:54 10° S night (unlit)
15 Nov - 13:47:01 10° SE 13:50:22 17° ESE 13:53:52 10° ENE daylight
15 Nov - 15:26:17 10° SW 15:31:37 89° NW 15:37:26 10° NE daylight
15 Nov - 17:10:01 10° W 17:14:34 25° NNW 17:19:23 10° NNE visible
15 Nov - 18:55:59 10° NW 18:58:49 14° N 19:01:42 10° NNE visible
15 Nov - 20:39:47 10° NNW 20:43:26 16° NNE 20:47:07 10° ENE visible
15 Nov - 22:21:38 10° NNW 22:27:14 40° NE 22:32:44 10° ESE night (unlit)
16 Nov - 00:03:49 10° NW 00:09:35 52° WSW 00:15:09 10° SSE night (unlit)
16 Nov - 14:36:54 10° SSW 14:42:02 53° ESE 14:47:37 10° NE daylight
16 Nov - 16:19:23 10° WSW 16:24:26 36° NW 16:29:48 10° NNE visible
16 Nov - 18:04:56 10° NW 18:08:18 16° NNW 18:11:46 10° NNE visible
16 Nov - 19:49:56 10° NNW 19:52:57 14° N 19:55:59 10° NE visible
16 Nov - 21:32:06 10° NNW 21:37:07 28° NE 21:42:07 10° E visible
16 Nov - 23:14:00 10° NW 23:20:00 87° SW 23:25:49 10° SSE night (unlit)
17 Nov - 00:57:32 10° WNW 01:01:19 18° WSW 01:05:00 10° SW night (unlit)
17 Nov - 13:48:07 10° S 13:52:40 30° ESE 13:57:32 10° NE daylight
17 Nov - 15:29:09 10° SW 15:34:28 57° NW 15:40:12 10° NNE daylight
17 Nov - 17:13:51 10° WNW 17:17:53 20° NNW 17:22:04 10° NNE visible
17 Nov - 18:59:41 10° NNW 19:02:23 13° N 19:05:07 10° NNE visible
17 Nov - 20:42:30 10° NNW 20:46:51 20° NNE 20:51:11 10° ENE visible
17 Nov - 22:24:19 10° NNW 22:30:14 59° NE 22:35:59 10° SE night (unlit)
18 Nov - 00:06:57 10° NW 00:12:05 31° WSW 00:17:05 10° S night (unlit)
18 Nov - 13:00:16 10° SE 13:03:29 16° ESE 13:06:50 10° ENE daylight
18 Nov - 14:39:20 10° SSW 14:44:42 88° SE 14:50:31 10° NE daylight
18 Nov - 16:22:57 10° W 16:27:35 26° NNW 16:32:29 10° NNE visible
18 Nov - 18:08:55 10° NW 18:11:49 14° N 18:14:46 10° NNE visible
18 Nov - 19:52:51 10° NNW 19:56:27 16° NNE 20:00:04 10° NE visible
18 Nov - 21:34:44 10° NNW 21:40:17 38° NE 21:45:43 10° ESE visible
18 Nov - 23:16:54 10° NW 23:22:41 54° WSW 23:28:16 10° SSE night (unlit)
19 Nov - 13:50:00 10° S 13:55:08 51° ESE 14:00:41 10° NE daylight
19 Nov - 15:32:22 10° WSW 15:37:28 38° NW 15:42:54 10° NNE daylight
19 Nov - 17:17:52 10° NW 17:21:19 16° NNW 17:24:51 10° NNE visible
19 Nov - 19:02:58 10° NNW 19:05:57 14° N 19:08:57 10° NE visible
19 Nov - 20:45:10 10° NNW 20:50:09 27° NNE 20:55:06 10° E visible
19 Nov - 22:27:05 10° NW 22:33:05 90° ENE 22:38:53 10° SSE night (unlit)
20 Nov - 00:10:31 10° WNW 00:14:26 19° WSW 00:18:16 10° SSW night (unlit)
20 Nov - 13:01:17 10° SSE 13:05:46 28° ESE 13:10:34 10° NE daylight
20 Nov - 14:42:10 10° SW 14:47:32 59° NW 14:53:18 10° NNE daylight
20 Nov - 16:26:46 10° WNW 16:30:54 20° NNW 16:35:10 10° NNE visible
20 Nov - 18:12:40 10° NNW 18:15:23 13° N 18:18:08 10° NNE visible
20 Nov - 19:55:35 10° NNW 19:59:53 20° NNE 20:04:09 10° ENE visible
20 Nov - 21:37:25 10° NNW 21:43:17 56° NE 21:49:01 10° SE visible
20 Nov - 23:19:58 10° NW 23:25:12 33° WSW 23:30:15 10° S night (unlit)
21 Nov - 12:13:32 10° SE 12:16:36 15° ESE 12:19:47 10° ENE daylight
21 Nov - 13:52:23 10° SSW 13:57:46 84° ESE 14:03:36 10° NE daylight
21 Nov - 15:35:54 10° W 15:40:37 27° NW 15:45:34 10° NNE daylight
21 Nov - 17:21:51 10° NW 17:24:49 14° N 17:27:49 10° NNE visible
21 Nov - 19:05:55 10° NNW 19:09:27 16° NNE 19:13:01 10° NE visible
21 Nov - 20:47:50 10° NNW 20:53:19 37° NE 20:58:43 10° ESE visible
21 Nov - 22:29:57 10° NW 22:35:47 57° WSW 22:41:23 10° SSE night (unlit)
